When you browse on this site, cookies collect data to enhance your experience and personalize the content and advertising you see.
Visit our Privacy Policy to learn more. By continuing to use the site, you agree to this use of cookies and data.
  • In Latvia
  • List of Countries
  • For 7 days
  • Water Temperature
  • Weather Map
  • Weather Widgets
  • user-avatar
    Login

    Hourly Weather Bejrut

    Today, 19 August, Monday

    Time Temperature Precipitation Wind Pressure Humidity
    00:00 +25°C° 0 mm 3 mps 751 mmHg 82%
    01:00 +25°C° 0 mm 3 mps 751 mmHg 80%
    02:00 +24°C° 0 mm 3 mps 750 mmHg 81%
    03:00 +24°C° 0 mm 3 mps 751 mmHg 81%
    04:00 +24°C° 0 mm 3 mps 751 mmHg 81%
    05:00 +23°C° 0 mm 4 mps 751 mmHg 80%
    06:00 +26°C° 0 mm 4 mps 752 mmHg 70%
    07:00 +28°C° 0 mm 4 mps 752 mmHg 61%
    08:00 +30°C° 0 mm 4 mps 752 mmHg 51%
    09:00 +32°C° 0 mm 5 mps 752 mmHg 50%
    10:00 +33°C° 0 mm 5 mps 752 mmHg 48%
    11:00 +34°C° 0 mm 5 mps 752 mmHg 47%
    12:00 +33°C° 0 mm 5 mps 752 mmHg 51%
    13:00 +33°C° 0 mm 4 mps 752 mmHg 55%
    14:00 +33°C° 0 mm 4 mps 751 mmHg 59%
    15:00 +31°C° 0 mm 3 mps 751 mmHg 61%
    16:00 +31°C° 0 mm 3 mps 751 mmHg 64%
    17:00 +30°C° 0 mm 2 mps 751 mmHg 66%
    18:00 +29°C° 0 mm 2 mps 752 mmHg 71%
    19:00 +27°C° 0 mm 1 mps 752 mmHg 75%
    20:00 +26°C° 0 mm 1 mps 753 mmHg 80%
    21:00 +25°C° 0 mm 1 mps 753 mmHg 76%
    22:00 +25°C° 0 mm 1 mps 753 mmHg 73%
    23:00 +25°C° 0 mm 1 mps 752 mmHg 70%

    Tomorrow, 20 August, Tuesday

    Time Temperature Precipitation Wind Pressure Humidity
    00:00 +25°C° 0 mm 1 mps 752 mmHg 71%
    01:00 +24°C° 0 mm 1 mps 752 mmHg 73%
    02:00 +24°C° 0 mm 1 mps 752 mmHg 75%
    03:00 +23°C° 0 mm 1 mps 752 mmHg 77%
    04:00 +23°C° 0 mm 1 mps 753 mmHg 79%
    05:00 +23°C° 0 mm 1 mps 753 mmHg 80%
    06:00 +25°C° 0 mm 2 mps 753 mmHg 70%
    07:00 +27°C° 0 mm 2 mps 753 mmHg 61%
    08:00 +29°C° 0 mm 2 mps 753 mmHg 51%
    09:00 +30°C° 0 mm 3 mps 753 mmHg 51%
    10:00 +31°C° 0 mm 3 mps 753 mmHg 51%
    11:00 +33°C° 0 mm 3 mps 753 mmHg 51%
    12:00 +33°C° 0 mm 3 mps 753 mmHg 49%
    13:00 +33°C° 0 mm 3 mps 753 mmHg 48%
    14:00 +32°C° 0 mm 2 mps 753 mmHg 47%
    15:00 +32°C° 0 mm 2 mps 753 mmHg 44%
    16:00 +31°C° 0 mm 2 mps 753 mmHg 42%
    17:00 +31°C° 0 mm 1 mps 753 mmHg 40%
    18:00 +29°C° 0 mm 1 mps 753 mmHg 47%
    19:00 +27°C° 0 mm 1 mps 754 mmHg 54%
    20:00 +25°C° 0 mm 1 mps 754 mmHg 61%
    21:00 +25°C° 0 mm 1 mps 754 mmHg 61%
    22:00 +25°C° 0 mm 1 mps 754 mmHg 61%
    23:00 +25°C° 0 mm 1 mps 753 mmHg 61%

    Day after tomorrow, 21 August, Wednesday

    Time Temperature Precipitation Wind Pressure Humidity
    00:00 +25°C° 0 mm 1 mps 753 mmHg 62%
    01:00 +25°C° 0 mm 1 mps 753 mmHg 64%
    02:00 +25°C° 0 mm 1 mps 753 mmHg 66%
    03:00 +25°C° 0 mm 1 mps 753 mmHg 67%
    04:00 +25°C° 0 mm 1 mps 753 mmHg 69%
    05:00 +24°C° 0 mm 1 mps 753 mmHg 71%
    06:00 +26°C° 0 mm 2 mps 753 mmHg 64%
    07:00 +29°C° 0 mm 2 mps 753 mmHg 57%
    08:00 +31°C° 0 mm 3 mps 753 mmHg 49%
    09:00 +31°C° 0 mm 3 mps 753 mmHg 48%
    10:00 +33°C° 0 mm 4 mps 753 mmHg 48%
    11:00 +34°C° 0 mm 4 mps 753 mmHg 47%
    12:00 +34°C° 0 mm 4 mps 753 mmHg 47%
    13:00 +34°C° 0 mm 4 mps 753 mmHg 48%
    14:00 +34°C° 0 mm 4 mps 753 mmHg 48%
    15:00 +33°C° 0 mm 3 mps 753 mmHg 50%
    16:00 +33°C° 0 mm 3 mps 752 mmHg 52%
    17:00 +31°C° 0 mm 2 mps 752 mmHg 54%
    18:00 +29°C° 0 mm 2 mps 752 mmHg 60%
    19:00 +28°C° 0 mm 2 mps 753 mmHg 66%
    20:00 +26°C° 0 mm 2 mps 753 mmHg 73%
    21:00 +26°C° 0 mm 1 mps 753 mmHg 73%
    22:00 +25°C° 0 mm 1 mps 753 mmHg 73%
    23:00 +25°C° 0 mm 1 mps 753 mmHg 73%

    22 August, Thursday

    Time Temperature Precipitation Wind Pressure Humidity
    00:00 +25°C° 0 mm 1 mps 753 mmHg 71%
    01:00 +25°C° 0 mm 1 mps 752 mmHg 69%
    02:00 +25°C° 0 mm 1 mps 752 mmHg 68%
    03:00 +25°C° 0 mm 1 mps 752 mmHg 66%
    04:00 +25°C° 0 mm 1 mps 752 mmHg 64%
    05:00 +25°C° 0 mm 2 mps 752 mmHg 62%
    06:00 +27°C° 0 mm 2 mps 752 mmHg 57%
    07:00 +29°C° 0 mm 2 mps 752 mmHg 51%
    08:00 +33°C° 0 mm 3 mps 753 mmHg 45%
    09:00 +33°C° 0 mm 3 mps 753 mmHg 46%
    10:00 +34°C° 0 mm 3 mps 753 mmHg 47%
    11:00 +35°C° 0 mm 2 mps 753 mmHg 47%
    12:00 +35°C° 0 mm 2 mps 752 mmHg 47%
    13:00 +35°C° 0 mm 2 mps 752 mmHg 47%
    14:00 +35°C° 0 mm 2 mps 751 mmHg 46%
    15:00 +35°C° 0 mm 2 mps 751 mmHg 48%
    16:00 +34°C° 0 mm 2 mps 751 mmHg 49%
    17:00 +34°C° 0 mm 2 mps 751 mmHg 50%
    18:00 +31°C° 0 mm 2 mps 751 mmHg 55%
    19:00 +30°C° 0 mm 2 mps 751 mmHg 60%
    20:00 +28°C° 0 mm 2 mps 751 mmHg 64%
    21:00 +27°C° 0 mm 1 mps 751 mmHg 65%
    22:00 +27°C° 0 mm 1 mps 751 mmHg 66%
    23:00 +27°C° 0 mm 1 mps 751 mmHg 66%

    23 August, Friday

    Time Temperature Precipitation Wind Pressure Humidity
    00:00 +27°C° 0 mm 1 mps 751 mmHg 66%
    01:00 +26°C° 0 mm 1 mps 751 mmHg 65%
    02:00 +26°C° 0 mm 1 mps 750 mmHg 64%
    03:00 +26°C° 0 mm 1 mps 750 mmHg 63%
    04:00 +24°C° 0 mm 0 mps 751 mmHg 62%
    05:00 +24°C° 0 mm 0 mps 751 mmHg 61%
    06:00 +29°C° 0 mm 1 mps 751 mmHg 55%
    07:00 +31°C° 0 mm 1 mps 751 mmHg 48%
    08:00 +34°C° 0 mm 2 mps 751 mmHg 42%
    09:00 +35°C° 0 mm 2 mps 751 mmHg 43%
    10:00 +36°C° 0 mm 2 mps 751 mmHg 43%
    11:00 +37°C° 0 mm 2 mps 751 mmHg 44%
    12:00 +37°C° 0 mm 2 mps 750 mmHg 42%
    13:00 +37°C° 0 mm 2 mps 750 mmHg 41%
    14:00 +37°C° 0 mm 2 mps 750 mmHg 40%
    15:00 +37°C° 0 mm 2 mps 750 mmHg 40%
    16:00 +37°C° 0 mm 2 mps 749 mmHg 40%
    17:00 +36°C° 0 mm 2 mps 749 mmHg 41%
    18:00 +34°C° 0 mm 2 mps 749 mmHg 48%
    19:00 +32°C° 0 mm 2 mps 749 mmHg 55%
    20:00 +30°C° 0 mm 2 mps 749 mmHg 61%
    21:00 +30°C° 0 mm 2 mps 749 mmHg 61%
    22:00 +29°C° 0 mm 2 mps 749 mmHg 60%
    23:00 +29°C° 0 mm 3 mps 750 mmHg 60%

    24 August, Saturday

    Time Temperature Precipitation Wind Pressure Humidity
    00:00 +29°C° 0 mm 2 mps 749 mmHg 60%
    01:00 +29°C° 0 mm 2 mps 749 mmHg 61%
    02:00 +29°C° 0 mm 2 mps 749 mmHg 61%
    03:00 +28°C° 0 mm 1 mps 749 mmHg 59%
    04:00 +28°C° 0 mm 1 mps 749 mmHg 57%
    05:00 +28°C° 0 mm 1 mps 750 mmHg 55%
    06:00 +31°C° 0 mm 1 mps 750 mmHg 50%
    07:00 +34°C° 0 mm 2 mps 750 mmHg 45%
    08:00 +37°C° 0 mm 2 mps 750 mmHg 40%
    09:00 +37°C° 0 mm 2 mps 750 mmHg 38%
    10:00 +38°C° 0 mm 2 mps 750 mmHg 37%
    11:00 +39°C° 0 mm 2 mps 750 mmHg 36%
    12:00 +39°C° 0 mm 2 mps 750 mmHg 37%
    13:00 +38°C° 0 mm 2 mps 749 mmHg 38%
    14:00 +38°C° 0 mm 3 mps 749 mmHg 39%
    15:00 +37°C° 0 mm 2 mps 749 mmHg 41%
    16:00 +37°C° 0 mm 2 mps 749 mmHg 42%
    17:00 +35°C° 0 mm 1 mps 749 mmHg 44%
    18:00 +33°C° 0 mm 1 mps 749 mmHg 53%
    19:00 +31°C° 0 mm 1 mps 750 mmHg 62%
    20:00 +29°C° 0 mm 1 mps 750 mmHg 71%
    21:00 +28°C° 0 mm 1 mps 750 mmHg 72%
    22:00 +28°C° 0 mm 1 mps 750 mmHg 73%
    23:00 +28°C° 0 mm 1 mps 751 mmHg 74%
    Show more